OBJECT U, 64894

Orbit data source: Space-Track

You're viewing an Uncataloged Satellite

Recently launched and/or uncataloged satellites may have evolving metadata. Metadata may include but not limited to: Owner, Maufacturer, Bus, Motor, and Mission.

OBJECT U, 64894 is a satellite in SSO that was launched on Fri, 25 Jul 2025 UTC via a SOYUZ-2-1B launch vehicle from the Vostochny Cosmodrome (VOSTO). Unknown objects in Earth's orbit typically refer to objects detected orbiting the Earth but have not yet been identified or cataloged. These objects could be anything from previously untracked satellites, spent rocket stages, debris from satellite collisions, or even natural meteoroids temporarily captured by Earth's gravity.

Loading next visibility...
Identifier
64894, 2025-155U
Orbit
SSO
Country
Flag of TBDTBD
Related business
Flag of RUGeoscan (RU)
Manufacturer
SPUT/GEOSK
Mission
Operational Commercial Communications
Bus & Motor
CUBESAT 3U, Unknown motor
Mass
3 kg wet, 3 kg dry
Launch date (UTC)
2025-07-25 (11 months ago)
Launch vehicle
SOYUZ-2-1B
Launch site
Vostochny Cosmodrome (VOSTO)
Object type
Unknown
Shape & HBR
Box + 2 Pan, 1.1 m
Radar Cross Section
0.035 m², Medium (>0.1 m² and < 1m²)

Expand to show TLE details & history
Last TLE update: 10 hours ago

TLE from 10 hours ago
0 OBJECT U
1 64894U 25155U   26171.42361041  .00031450  00000-0  68898-3 0  9992
2 64894  97.4490 142.9971 0006971 143.2163 216.9565 15.44025197 81463
Epoch: 2026-06-20T10:09Z
TLE epoch observation values (Epoch: 2026-06-20T10:09:59.939Z)
Latitude
0.00003°
Longitude
81.85891°
Altitude
441.162 km
Speed
7.645 km/s
True Right ascension
09h 31m 59s
True Declination
0° 00' 00"
Sunlit
Object was in daylight at epoch
Visualization orbit readout
Latitude
Unknown
Longitude
Unknown
Altitude
Unknown
Speed
Unknown
Apparent Right ascension
Unknown
Apparent Declination
Unknown
Sunlit
N/A
Visualization observer readout
Local Sidereal Time
07:21:19
Azimuth
Unknown
Elevation
Unknown
Doppler factor
Unknown
Orbital elements
Apogee altitude
435.926 km
Perigee altitude
426.433 km
Semi-major axis
6,809.317 km
Eccentricity
0.0007
Inclination
97.449°
RAAN
142.9971°
Arg. of periapsis
143.2163°
True anomaly
216.90851°
Mean anomaly
216.9565°
Eccentric anomaly
216.9325°
Mean motion
3.86267 °/min
Orbital period
93.2 mins
BSTAR
0.00068898
Loading maneuver chart data...
Computing Atmospheric mass density...
Loading historical data...
Loading historical data...
Loading historical data...
Loading historical data...
Loading historical data...
Loading historical data...
Loading historical data...

Documentation

Showing up to 5 results
|